This demonstration page uses our WeatherBlox Daily Observations layout. Learn more.

Left ArrowRight Arrow

34.02893, -84.19858

Hourly Observations for October 24, 2019

Temp ( °F °C ) Dew Point ( °F °C ) Humidity (%) Winds ( mph kmh ) Pressure ( in mb ) Visibility ( mi km ) Precip ( " mm )
12:53 am 00:53 Clear 45 7.2 42 5.6 90 90 Calm 30.21 1023 10 16 0.00 0.00
1:53 am 01:53 Clear 45 7.2 41 5 86 86 Calm 30.20 1023 10 16 0.00 0.00
2:53 am 02:53 Clear 42 5.6 39 3.9 89 89 NNE 3 6 30.21 1023 10 16 0.00 0.00
3:53 am 03:53 Clear 43 6.1 40 4.4 89 89 NNE 3 6 30.21 1023 10 16 0.00 0.00
4:53 am 04:53 Clear 43 6.1 40 4.4 89 89 NNE 5 7 30.22 1023 10 16 0.00 0.00
5:53 am 05:53 Clear 45 7.2 40 4.4 83 83 Calm 30.23 1024 10 16 0.00 0.00
6:53 am 06:53 Clear 43 6.1 39 3.9 86 86 Calm 30.26 1025 10 16 0.00 0.00
7:53 am 07:53 Sunny 46 7.8 40 4.4 79 79 VRB 3 6 30.27 1025 10 16 0.00 0.00
8:53 am 08:53 Sunny 50 10 41 5 71 71 VRB 5 7 30.28 1025 10 16 0.00 0.00
9:53 am 09:53 Sunny 56 13.3 41 5 57 57 VRB 3 6 30.29 1026 10 16 0.00 0.00
10:53 am 10:53 Sunny 61 16.1 42 5.6 50 50 ENE 5 7 30.29 1026 10 16 0.00 0.00
11:53 am 11:53 Sunny 64 17.8 42 5.6 45 45 VRB 5 7 30.28 1026 10 16 0.00 0.00
12:53 pm 12:53 Sunny 67 19.4 43 6.1 42 42 VRB 3 6 30.27 1025 10 16 0.00 0.00
1:53 pm 13:53 Sunny 68 20 42 5.6 39 39 undefined N/A 30.24 1024 10 16 0.00 0.00
2:53 pm 14:53 Sunny 68 20 42 5.6 39 39 SE 8 13 30.22 1023 10 16 0.00 0.00
3:53 pm 15:53 Sunny 68 20 44 6.7 42 42 Calm 30.20 1023 10 16 0.00 0.00
4:53 pm 16:53 Sunny 67 19.4 44 6.7 44 44 Calm 30.20 1023 10 16 0.00 0.00
5:53 pm 17:53 Sunny 65 18.3 45 7.2 49 49 Calm 30.19 1023 10 16 0.00 0.00
6:53 pm 18:53 Sunny 63 17.2 46 7.8 54 54 E 3 6 30.22 1023 10 16 0.00 0.00
7:53 pm 19:53 Clear 62 16.7 46 7.8 56 56 E 3 6 30.23 1024 10 16 0.00 0.00
8:53 pm 20:53 Mostly Cloudy 62 16.7 45 7.2 54 54 VRB 5 7 30.23 1024 10 16 0.00 0.00
9:53 pm 21:53 Mostly Cloudy 61 16.1 46 7.8 58 58 VRB 5 7 30.24 1024 10 16 0.00 0.00
10:53 pm 22:53 Mostly Cloudy 61 16.1 45 7.2 56 56 E 5 7 30.24 1024 10 16 0.00 0.00
11:53 pm 23:53 Mostly Cloudy 61 16.1 45 7.2 56 56 ENE 7 11 30.23 1024 10 16 0.00 0.00

Powered by AerisWeather